Weather past 2 weeks in Saipan, Northern Mariana Islands

Now
80 °F

Clear.


Feels Like: 85 °F
Forecast: 76 / 82 °F
Wind: No wind

Location: Saipan International Airport

Current Time: Aug 1, 2014 at 9:57:44 PM

Latest Report: Aug 1, 2014 at 8:54 PM


Visibility: 10 mi

Pressure: 29.91 "Hg

Humidity: 85%

Dew point: 75 °F

Location of SaipanLocation

Historic Weather in Saipan — Graph

°F

Saipan temperature yesterday

Maximum temperature yesterday: 85 °F (at 8:54 AM)
Minimum temperature yesterday: 81 °F (at 7:02 PM)
Average temperature yesterday: 82 °F

Past Weeks' High & Low Weather Summary

 TemperatureHumidityPressure
High88 °F (Jul 19, 1:54 PM)100% (Jul 28, 6:21 AM)29.96 "Hg (Jul 28, 6:21 AM)
Low75 °F (Jul 28, 6:21 AM)70% (Jul 22, 2:54 PM)29.75 "Hg (Jul 29, 3:16 PM)
Average82 °F84%29.87 "Hg
* Reported Jul 17 8:54 PM — Aug 1 8:54 PM, Saipan, Weather by CustomWeather, © 2014

Note: Actual official high and low records may vary slightly from our data, if they occured in-between our weather recording intervals... More about our weather records

Advertising

Saipan weather history for previous 24 hours

 ConditionsComfort  
Time TempWeatherWind HumidityBarometerVisibility
8:54 PM
Aug 1
80 °FClear.No wind85%29.91 "Hg10 mi
7:54 PM81 °FClear.3 mph82%29.91 "Hg10 mi
6:54 PM82 °FClear.3 mph79%29.90 "Hg10 mi
5:54 PM83 °FSunny.3 mph77%29.89 "Hg10 mi
4:54 PM85 °FSunny.6 mph75%29.87 "Hg10 mi
3:54 PM86 °FPassing clouds.8 mph75%29.87 "Hg10 mi
2:54 PM86 °FSunny.9 mph72%29.88 "Hg10 mi
1:54 PM86 °FPassing clouds.8 mph72%29.89 "Hg10 mi
12:54 PM87 °FPassing clouds.9 mph72%29.90 "Hg10 mi
11:54 AM86 °FSunny.9 mph75%29.91 "Hg10 mi
10:54 AM86 °FPassing clouds.7 mph72%29.93 "Hg10 mi
9:54 AM85 °FSunny.6 mph75%29.92 "Hg10 mi
8:54 AM84 °FPassing clouds.6 mph74%29.92 "Hg10 mi
7:54 AM83 °FSunny.5 mph77%29.91 "Hg10 mi
6:54 AM81 °FPassing clouds.5 mph82%29.90 "Hg10 mi
5:54 AM79 °FClear.5 mph88%29.87 "Hg10 mi
4:54 AM80 °FPassing clouds.5 mph87%29.88 "Hg10 mi
3:54 AM80 °FPassing clouds.5 mph85%29.87 "Hg10 mi
2:54 AM81 °FPassing clouds.5 mph82%29.88 "Hg10 mi
1:54 AM81 °FPassing clouds.3 mph82%29.88 "Hg10 mi
12:54 AM81 °FClear.3 mph79%29.88 "Hg10 mi
11:54 PM
Jul 31
81 °FPassing clouds.5 mph79%29.90 "Hg10 mi
10:54 PM82 °FPassing clouds.8 mph79%29.93 "Hg10 mi
9:54 PM82 °FPartly cloudy.10 mph79%29.93 "Hg10 mi
Weather by CustomWeather, © 2014

See weather overviewHow to use our weather pages